Location: *
(51.1248°S, 108.4023°W)
Time: 07:21:56
(UTC+00:00)

Envisat - Pass Details

Date: 01 October 2021
Orbit: 764 x 766 km, 98.2° (Epoch: 27 October)

Event Time Altitude Azimuth Distance (km) Brightness Sun altitude
Rises 09:05:26 0° 85° (E) 3,253 6.6 -29.6°
Reaches altitude 10° 09:10:07 10° 124° (SE) 2,338 6.3 -29.2°
Maximum altitude 09:10:54 10° 133° (SE) 2,316 6.4 -29.1°
Drops below altitude 10° 09:11:41 10° 142° (SE) 2,341 6.5 -29.0°
Sets 09:16:22 0° 181° (S) 3,279 7.0 -28.6°
